Location: Carrizal
(9.8472°N, 67.3428°W)
Time: 17:18:22
(UTC+00:00)

Envisat - Visible Passes

Search period start: 23 June 2024 00:00
Search period end: 03 July 2024 00:00
Orbit: 762 x 764 km, 98.3° (Epoch: 23 June)

Date Brightness Start Highest point End Pass type
(mag) Time Alt. Az. Time Alt. Az. Time Alt. Az.
23 Jun 5.1 07:14:19 10° NNE 07:16:07 22° NNE 07:16:07 22° NNE visible
24 Jun 6.0 06:38:10 10° NE 06:38:17 10° NE 06:38:17 10° NE visible
24 Jun 4.9 08:16:48 10° NNW 08:18:27 17° NW 08:18:27 17° NW visible
25 Jun 4.7 07:38:29 10° N 07:40:36 25° N 07:40:36 25° N visible
26 Jun 5.4 07:01:25 10° NNE 07:02:45 18° NE 07:02:45 18° NE visible
27 Jun 4.8 08:03:09 10° NNW 08:05:04 20° NNW 08:05:04 20° NNW visible
28 Jun 4.9 07:25:18 10° NNE 07:27:13 24° NNE 07:27:13 24° NNE visible
29 Jun 5.8 06:48:41 10° NE 06:49:22 13° NE 06:49:22 13° NE visible
29 Jun 5.1 08:28:36 10° NW 08:29:31 13° NW 08:29:31 13° NW visible
30 Jun 4.7 07:49:42 10° N 07:51:40 23° NNW 07:51:40 23° NNW visible
01 Jul 5.3 07:12:16 10° NNE 07:13:49 20° NNE 07:13:49 20° NNE visible
02 Jul 5.0 08:14:40 10° NNW 08:16:07 16° NW 08:16:07 16° NW visible
